Regional Weather Roundup
Issued by NWS

Home | Current Version | Previous Version | Text Only | Print | Product List | Glossary On
Versions: 1 2 3 4 5 6 7 8 9 10 11 12 13 14 15 16 17 18 19 20 21 22 23 24 25 26 27 28 29 30 31 32 33 34 35 36 37 38 39 40 41 42 43 44 45 46 47 48 49 50
000
ASUS43 KLOT 241408
RWRIL

ILLINOIS REGIONAL WEATHER ROUNDUP
NATIONAL WEATHER SERVICE CHICAGO/ROMEOVILLE IL
800 AM CST SAT FEB 24 2018

NOTE: "FAIR" INDICATES FEW OR NO CLOUDS BELOW 12,000 FEET WITH NO
SIGNIFICANT WEATHER AND/OR OBSTRUCTIONS TO VISIBILITY.

* THESE STATIONS ARE NOT UNDER NWS QUALITY CONTROL. THEY ALSO MAY NOT
  REPORT WEATHER SUCH AS PRECIPITATION OR FOG.

ILZ001-002-007-009-015-016-024-241500-
NORTHWEST ILLINOIS

CITY           SKY/WX    TMP DP  RH WIND       PRES   REMARKS
MOLINE         MIX PCPN  33  29  85 E14       30.11F FOG     WCI  23
STERLING*      CLOUDY    32  30  92 E13       30.15R WCI  22
SAVANNA*       CLOUDY    31  28  86 E10       30.15S WCI  22
$$

ILZ003-004-008-010-011-017-018-241500-
NORTH CENTRAL ILLINOIS

CITY           SKY/WX    TMP DP  RH WIND       PRES   REMARKS
ROCKFORD       CLOUDY    31  27  85 NE10      30.16F WCI  22
FREEPORT*      CLOUDY    29  27  90 E14       30.16S WCI  19
ROCHELLE*      CLOUDY    32  30  92 E10       30.15R WCI  24
DE KALB*       CLOUDY    32  30  92 E12       30.15S WCI  23
PERU*          CLOUDY    33  30  91 E14       30.13F FOG     WCI  23
$$

ILZ005-006-012>014-019>023-241500-
NORTHEAST ILLINOIS

CITY           SKY/WX    TMP DP  RH WIND       PRES   REMARKS
CHICAGO-OHARE  CLOUDY    34  28  79 E10       30.16F WCI  26
CHICAGO-MIDWAY CLOUDY    35  30  82 E14       30.16F WCI  26
AURORA         CLOUDY    34  30  85 E13       30.14S WCI  25
LANSING*       CLOUDY    35  33  92 E6        30.17R WCI  30
JOLIET*        CLOUDY    36  31  83 E9G18     30.16S WCI  29
WAUKEGAN       CLOUDY    33  28  81 E13       30.17F WCI  24
DUPAGE AIRPORT CLOUDY    33  30  88 E18G26    30.14S WCI  22
KANKAKEE*      CLOUDY    36  33  89 E9        30.15R WCI  29
WHEELING       CLOUDY    35  29  78 E9        30.19S WCI  28
MORRIS*        CLOUDY    35  31  86 E10       30.15R WCI  27
ROMEOVILLE*    CLOUDY    34  30  85 E13G18    30.15S WCI  25
NORTHERLY ISL    N/A     34  30  86 NE13        N/A  WCI  25
$$

LMZ740>746-241500-
SOUTHERN LAKE MICHIGAN

STATION/POSITION SKY/WX   TEMP    WIND        PRES    VSBY  WAVE
                          AIR SEA DIR/SP/G                  HT/PER
                          (F)     (DEG/KT/KT) (MB)    (MI)  (FT/S)
HARRISON CRIB              34      60/ 14/ 15   N/A
BURNHAM HARBOR             34      50/  9/ 15   N/A
CALUMET HARBOR             34      40/ 11/ 15 1021.2F
BURNS HARBOR               34      60/ 10/ 12 1022.4R
MICHIGAN CITY              35      50/ 10/ 11   N/A
$$

ILZ025>027-034>036-040-047-049-050-058-095>099-241500-
WEST-CENTRAL ILLINOIS

CITY           SKY/WX    TMP DP  RH WIND       PRES   REMARKS
QUINCY         LGT RAIN  33  32  96 NE9       30.06S FOG     WCI  25
GALESBURG*     MIX PCPN  33  32  96 E9        30.09F WCI  25
MACOMB*        LGT RAIN N/A N/A N/A NE10      30.10F
JACKSONVILLE*  DRIZZLE   36  35  96 NE8       30.05S WCI  29
PITTSFIELD*    DRIZZLE   36  36  99 NE5       30.06R WCI  32
$$

ILZ028>032-037-038-041>044-048-051>054-059>061-241500-
CENTRAL ILLINOIS

CITY           SKY/WX    TMP DP  RH WIND       PRES   REMARKS
PONTIAC        LGT RAIN  36  35  98 NE9       30.15R WCI  29
BLOOMINGTON    LGT RAIN  36  35  96 E15       30.10S FOG     WCI  27
DECATUR        LGT RAIN  38  38 100 E17       30.04F FOG     WCI  28
PEORIA         LGT RAIN  35  33  92 E14       30.09F FOG     WCI  26
LACON*         DRIZZLE   33  32  96 E9G16     30.11F WCI  26
LINCOLN*       DRIZZLE   38  38 100 E16       30.06F WCI  28
SPRINGFIELD    LGT RAIN  39  37  92 E16       30.04F FOG     WCI  30
TAYLORVILLE    CLOUDY    38  38  97 E13       30.02S WCI  31
$$

ILZ033-039-045-046-055>057-062-063-241500-
EAST-CENTRAL ILLINOIS

CITY           SKY/WX    TMP DP  RH WIND       PRES   REMARKS
CHAMPAIGN      LGT RAIN  38  37  97 E14       30.09R FOG     WCI  30
DANVILLE*      LGT RAIN  38  37  99 E9        30.09S WCI  31
RANTOUL*       DRIZZLE   39  39  99 E12       30.11S WCI  32
MATTOON        RAIN      41  40  96 NE10      30.05R FOG
PARIS*         HVY RAIN  40  40 100 E8        30.09F
$$

ILZ079-100>102-241500-
SOUTHWEST ILLINOIS

CITY           SKY/WX    TMP DP  RH WIND       PRES   REMARKS
ALTON          CLOUDY    41  41 100 N6        30.03R
BELLEVILLE     LGT RAIN  44  43  95 SE12      29.96F
CAHOKIA*       CLOUDY    45  43  93 VRB3      30.00R
SPARTA*        RAIN      45  45 100 SE9       30.02F
$$

ILZ064>066-069>071-074>076-080>082-084>086-088>090-092>094-241500-
SOUTH-CENTRAL ILLINOIS

CITY           SKY/WX    TMP DP  RH WIND       PRES   REMARKS
CARBONDALE     LGT RAIN  32  32  99 SE6       30.02F WCI  27
CAIRO*         DRIZZLE   49  49 100 NE8       30.01F
EFFINGHAM*     HVY RAIN  43  43 100 E17       30.04F
MARION         RAIN      46  46 100 E7        30.03F
MT. VERNON     LGT RAIN  46  45  96 E8        30.03  FOG
CENTRALIA*     RAIN      45  45 100 E7        30.02F
SALEM*         RAIN      45  44  95 E6        30.03F
METROPOLIS*    DRIZZLE   50  49  98 NE6       30.03R
$$

ILZ067-068-072-073-078-083-087-091-241500-
SOUTHEAST ILLINOIS

CITY           SKY/WX    TMP DP  RH WIND       PRES   REMARKS
LAWRENCEVILLE  LGT RAIN  47  46  97 E12       30.05F
FLORA*         RAIN      46  45  97 E5        30.06F
FAIRFIELD*     LGT RAIN  46  46 100 MISG      30.05R
HARRISBURG*    DRIZZLE   47  47 100 E17       30.04F
ROBINSON*      LGT RAIN  44  44 100 E9        30.09F
CARMI*         RAIN      47  47 100 E16       30.04F
$$

ABBREVIATIONS USED IN REMARKS
   TC - TEMPERATURE IN CELSIUS
  WCI - WIND CHILL INDEX
   HX - HEAT INDEX
  VSB - VISIBILITY
$$





USA.gov is the U.S. government's official web portal to all federal, state and local government web resources and services.